User: anonymous   Login
Location: Prague
(50.0830°N, 14.4670°E)
Time: 17:43:54
(UTC+01:00)
Language:

EO-79 - Orbit

View from above orbital plane
View from above orbital plane
View from above satellite
View from above satellite

Ground track
Ground track

The orbit data is extracted from the following two-line orbital elements,

1 40025U 14033R   21337.09812655  .00000937  00000-0  10386-3 0  9994
2 40025  97.9445 268.3145 0012157 350.5812   9.5175 14.89673496405036
Epoch (UTC): 03 December 2021 02:21:18
Eccentricity: 0.0012157
inclination: 97.9445°
perigee height: 590 km
apogee height: 607 km
right ascension of ascending node: 268.3145°
argument of perigee: 350.5812°
revolutions per day: 14.89673496
mean anomaly at epoch: 9.5175°
orbit number at epoch: 40503

The dashed part of the orbit path shows where the satellite is in the earth's shadow,  

DLR